EW4354 Weather Reports


time (UTC)temp
F
wind
direction
speed
knots
gust
knots
rain 1hr
in
rain 24hr
in
rain mn
in
humidity
%
barometer
mb
20260506204903 62 237 4.3 8.7 0.00 0.15 0.15 90 1004.6
20260506204404 62 220 2.6 5.2 0.00 0.15 0.15 90 1004.6
20260506203904 62 225 2.6 7.8 0.00 0.15 0.15 90 1004.6
20260506203405 62 227 4.3 7.8 0.00 0.15 0.15 90 1004.6
20260506202903 62 232 4.3 7.0 0.00 0.15 0.15 90 1004.6
20260506202404 62 201 2.6 6.1 0.00 0.15 0.15 90 1004.6
20260506192404 61 230 4.3 10.4 0.01 0.15 0.15 91 1005.2
20260506191904 61 229 2.6 7.0 0.01 0.15 0.15 91 1005.1
20260506191404 61 227 2.6 10.4 0.01 0.15 0.15 91 1005.1
20260506190904 62 224 3.5 8.7 0.01 0.15 0.15 92 1005.1
20260506190404 61 241 2.6 7.0 0.01 0.15 0.15 92 1005.1
20260506185904 61 248 3.5 6.1 0.01 0.15 0.15 92 1005.1
20260506185404 61 239 2.6 7.8 0.01 0.15 0.15 92 1005.2
20260506184904 61 236 4.3 10.4 0.02 0.15 0.15 92 1005.3
20260506184404 61 252 4.3 8.7 0.02 0.15 0.15 92 1005.3
20260506182921 61 243 2.6 6.1 0.01 0.14 0.14 92 1005.5
20260506180905 61 237 2.6 5.2 0.01 0.14 0.14 92 1005.6
20260506180405 61 208 2.6 4.3 0.02 0.14 0.14 92 1005.6
20260506175905 61 234 1.7 6.1 0.02 0.14 0.14 92 1005.6
20260506175405 61 228 2.6 7.0 0.03 0.14 0.14 92 1005.6
20260506174908 61 230 4.3 10.4 0.02 0.13 0.13 92 1005.7
20260506174407 62 209 2.6 6.1 0.03 0.13 0.13 92 1005.7
20260506173907 62 242 1.7 7.8 0.04 0.13 0.13 92 1005.6
20260506173406 62 222 2.6 11.3 0.05 0.13 0.13 92 1005.6
20260506172911 62 197 1.7 5.2 0.06 0.13 0.13 92 1005.7
20260506172407 62 246 0.9 4.3 0.07 0.13 0.13 92 1005.8
20260506171404 61 190 2.6 7.0 0.08 0.13 0.13 92 1005.8
20260506170906 61 227 2.6 7.0 0.08 0.13 0.13 91 1005.9
20260506170407 61 234 0.9 2.6 0.08 0.12 0.12 91 1006.0
20260506165907 61 205 1.7 4.3 0.09 0.12 0.12 91 1006.1
20260506164906 62 227 2.6 7.0 0.09 0.11 0.11 91 1006.3
20260506164406 62 209 1.7 5.2 0.08 0.10 0.10 91 1006.3
20260506163904 62 190 1.7 4.3 0.08 0.09 0.09 90 1006.5
20260506163404 62 222 2.6 7.8 0.07 0.08 0.08 90 1006.6
20260506162419 62 211 1.7 5.2 0.05 0.06 0.06 90 1006.7
20260506161403 62 224 2.6 8.7 0.04 0.05 0.05 89 1006.7
20260506160904 62 235 2.6 7.0 0.05 0.05 0.05 89 1006.8
20260506160403 62 202 1.7 8.7 0.04 0.04 0.04 89 1006.8
20260506155912 62 242 1.7 4.3 0.03 0.03 0.03 88 1006.9
20260506155407 63 244 1.7 4.3 0.03 0.03 0.03 88 1007.0
20260506154908 63 237 1.7 4.3 0.02 0.02 0.02 87 1006.9
20260506153903 63 233 2.6 4.3 0.01 0.01 0.01 86 1006.9
20260506153404 63 218 1.7 5.2 0.01 0.01 0.01 86 1007.0
20260506152906 63 244 2.6 7.0 0.01 0.01 0.01 85 1006.9
20260506152406 64 228 1.7 5.2 0.01 0.01 0.01 85 1006.8
20260506151904 64 223 1.7 5.2 0.01 0.01 0.01 84 1006.8
20260506151403 64 216 4.3 8.7 0.01 0.01 0.01 83 1006.9
20260506150405 64 224 1.7 4.3 0.00 0.00 0.00 82 1007.0
20260506145904 64 235 1.7 4.3 0.00 0.00 0.00 81 1007.0
20260506145403 65 244 2.6 6.1 0.00 0.00 0.00 80 1007.1
20260506144904 65 217 1.7 6.1 0.00 0.00 0.00 80 1007.2
20260506144404 65 241 2.6 6.1 0.00 0.00 0.00 79 1007.2
20260506143904 65 238 1.7 5.2 0.00 0.00 0.00 78 1007.3
20260506142904 65 273 1.7 5.2 0.00 0.00 0.00 77 1007.4
20260506142404 65 246 3.5 7.8 0.00 0.00 0.00 77 1007.5
20260506141903 65 235 1.7 7.8 0.00 0.00 0.00 76 1007.4
20260506141404 65 241 3.5 7.8 0.00 0.00 0.00 76 1007.5
20260506140904 65 214 1.7 7.8 0.00 0.00 0.00 76 1007.5
20260506140405 65 239 2.6 5.2 0.00 0.00 0.00 76 1007.4
20260506135904 65 200 3.5 6.1 0.00 0.00 0.00 76 1007.3
20260506135404 66 244 1.7 7.0 0.00 0.00 0.00 76 1007.4
20260506134907 66 218 2.6 8.7 0.00 0.00 0.00 76 1007.2
20260506134404 66 195 2.6 6.1 0.00 0.00 0.00 76 1007.0
20260506133904 66 210 1.7 10.4 0.00 0.00 0.00 76 1007.0
20260506133406 66 219 2.6 8.7 0.00 0.00 0.00 76 1006.9
20260506132903 66 241 2.6 7.0 0.00 0.00 0.00 76 1007.0
20260506132404 65 237 1.7 6.1 0.00 0.00 0.00 76 1007.0
20260506131909 65 239 3.5 8.7 0.00 0.00 0.00 76 1006.8
20260506131404 65 226 2.6 6.1 0.00 0.00 0.00 77 1006.8
20260506130905 65 211 3.5 7.0 0.00 0.00 0.00 77 1006.8
20260506125903 64 247 2.6 5.2 0.00 0.00 0.00 78 1007.0
20260506125405 64 230 1.7 6.1 0.00 0.00 0.00 78 1006.9
20260506124904 64 127 1.7 5.2 0.00 0.00 0.00 78 1007.0
20260506124404 64 227 1.7 4.3 0.00 0.00 0.00 78 1007.1
20260506123904 64 207 2.6 5.2 0.00 0.00 0.00 78 1007.3
20260506123404 64 158 0.9 2.6 0.00 0.00 0.00 78 1007.4
20260506122905 64 223 1.7 5.2 0.00 0.00 0.00 78 1007.4
20260506121904 63 225 1.7 4.3 0.00 0.00 0.00 78 1007.7
20260506121404 64 232 4.3 7.0 0.00 0.00 0.00 78 1007.8
20260506120904 64 254 2.6 10.4 0.00 0.00 0.00 78 1007.7
20260506120405 64 219 2.6 8.7 0.00 0.00 0.00 78 1007.7
20260506115904 64 182 2.6 7.0 0.00 0.00 0.00 78 1007.5
20260506115405 64 218 2.6 5.2 0.00 0.00 0.00 77 1007.5
20260506114904 64 242 3.5 7.8 0.00 0.00 0.00 77 1007.4
20260506114403 64 215 2.6 8.7 0.00 0.00 0.00 77 1007.4
20260506113904 64 213 3.5 8.7 0.00 0.00 0.00 78 1007.4
20260506113404 63 231 2.6 7.0 0.00 0.00 0.00 77 1007.4
20260506111426 63 215 2.6 7.0 0.00 0.00 0.00 78 1007.3
20260506105904 62 239 2.6 7.8 0.00 0.00 0.00 80 1007.1
20260506105404 62 219 1.7 5.2 0.00 0.00 0.00 81 1006.9
20260506104911 61 225 2.6 6.1 0.00 0.00 0.00 83 1007.0
20260506103904 59 209 2.6 13.9 0.00 0.00 0.00 88 1007.0
20260506101908 56 244 1.7 2.6 0.00 0.00 0.00 92 1007.2
20260506101408 55 243 1.7 2.6 0.00 0.00 0.00 92 1007.1
20260506100915 55 297 0.9 2.6 0.00 0.00 0.00 92 1007.1
20260506094422 55 338 0.9 1.7 0.00 0.00 0.00 91 1007.0
20260506093411 55 338 0.0 1.7 0.00 0.00 0.00 91 1006.9
20260506092913 55 338 0.0 0.9 0.00 0.00 0.00 91 1006.9
20260506092419 55 338 0.0 0.9 0.00 0.00 0.00 91 1007.0
20260506091925 55 338 0.9 1.7 0.00 0.00 0.00 90 1006.9
20260506091409 56 338 0.9 0.9 0.00 0.00 0.00 90 1006.9
20260506090907 56 338 0.0 0.0 0.00 0.00 0.00 90 1007.0
20260506090407 56 338 0.0 0.0 0.00 0.00 0.00 90 1006.9
20260506085911 56 338 0.0 0.0 0.00 0.00 0.00 90 1007.0
20260506085408 56 338 0.0 0.0 0.00 0.00 0.00 90 1007.1
20260506084906 56 338 0.0 0.9 0.00 0.00 0.00 90 1007.2
20260506084405 57 338 0.9 0.9 0.00 0.00 0.00 90 1007.3
20260506083909 57 338 0.0 0.9 0.00 0.00 0.00 89 1007.3
20260506083408 57 338 0.9 0.9 0.00 0.00 0.00 89 1007.3
20260506082916 57 338 0.0 0.9 0.00 0.00 0.00 89 1007.2
20260506082422 57 338 0.0 0.0 0.00 0.00 0.00 89 1007.2
20260506081910 57 338 0.0 0.0 0.00 0.00 0.00 89 1007.2
20260506081404 57 338 0.0 0.0 0.00 0.00 0.00 88 1007.2
20260506080904 57 338 0.0 0.9 0.00 0.00 0.00 88 1007.2
20260506080404 58 338 0.9 1.7 0.00 0.00 0.00 88 1007.3
20260506073404 58 338 0.0 0.0 0.00 0.00 0.00 86 1007.6
20260506072904 59 338 0.0 1.7 0.00 0.00 0.00 86 1007.6
20260506072403 59 338 0.0 0.9 0.00 0.00 0.00 86 1007.7
20260506071404 59 338 0.0 0.9 0.00 0.00 0.00 85 1007.9
20260506070903 59 338 0.0 0.9 0.00 0.00 0.00 85 1007.9
20260506070404 59 338 0.0 0.9 0.00 0.00 0.00 85 1008.0
20260506061905 60 339 0.9 1.7 0.00 0.00 0.00 84 1008.5
20260506061404 60 341 0.9 2.6 0.00 0.00 0.00 83 1008.3
20260506060905 60 301 0.9 2.6 0.00 0.00 0.00 83 1008.3
20260506051403 61 295 0.9 1.7 0.00 0.00 0.00 80 1008.6
20260506050905 62 295 0.9 1.7 0.00 0.00 0.00 79 1008.5
20260506050403 62 298 0.9 2.6 0.00 0.00 0.00 79 1008.5
20260506044904 62 315 0.9 2.6 0.00 0.00 0.00 79 1008.8
20260506044403 63 28 0.9 7.0 0.00 0.00 0.00 79 1008.5
20260506043903 63 342 1.7 6.1 0.00 0.00 0.00 79 1008.6
20260506043403 63 339 2.6 7.8 0.00 0.00 0.00 78 1008.4
20260506042403 64 16 0.9 2.6 0.00 0.00 0.00 76 1008.2
20260506041904 64 346 1.7 2.6 0.00 0.00 0.00 75 1008.1
20260506041404 65 275 1.7 2.6 0.00 0.00 0.00 73 1008.1
20260506040904 65 275 0.9 0.9 0.00 0.00 0.00 72 1007.8
20260506040403 65 275 0.0 1.7 0.00 0.00 0.00 72 1007.7
20260506035904 65 275 1.7 2.6 0.00 0.00 0.00 72 1007.6
20260506035404 65 275 0.9 1.7 0.00 0.00 0.00 72 1007.6
20260506034904 66 275 1.7 1.7 0.00 0.00 0.00 71 1007.6
20260506033903 67 275 0.0 1.7 0.00 0.00 0.00 69 1007.5
20260506033404 67 275 0.9 1.7 0.00 0.00 0.00 67 1007.4
20260506032904 68 275 0.9 2.6 0.00 0.00 0.00 65 1007.5
20260506032404 70 288 1.7 6.1 0.00 0.00 0.00 60 1007.5
20260506031904 70 266 2.6 6.1 0.00 0.00 0.00 51 1007.3
20260506031404 70 246 2.6 4.3 0.00 0.00 0.00 52 1007.2
20260506030905 69 233 1.7 6.1 0.00 0.00 0.00 55 1007.2
20260506030404 68 242 1.7 6.1 0.00 0.00 0.00 59 1007.1
20260506025906 67 249 1.7 2.6 0.00 0.00 0.00 63 1007.2
20260506025404 66 197 1.7 2.6 0.00 0.00 0.00 65 1007.2
20260506024403 65 290 0.0 1.7 0.00 0.00 0.00 73 1007.1
20260506023904 65 290 0.9 1.7 0.00 0.00 0.00 73 1007.1
20260506023403 65 290 0.9 1.7 0.00 0.00 0.00 74 1007.1
20260506022904 65 290 0.9 1.7 0.00 0.00 0.00 74 1007.1
20260506022405 65 290 0.9 1.7 0.00 0.00 0.00 74 1007.2
20260506021904 65 290 1.7 1.7 0.00 0.00 0.00 74 1007.3
20260506021404 65 290 0.9 2.6 0.00 0.00 0.00 74 1007.3
20260506020905 65 290 1.7 1.7 0.00 0.00 0.00 74 1007.4
20260506020403 65 290 0.9 1.7 0.00 0.00 0.00 73 1007.5
20260506015904 66 290 0.9 1.7 0.00 0.00 0.00 73 1007.5
20260506015404 66 290 0.0 2.6 0.00 0.00 0.00 72 1007.6
20260506014903 66 288 0.9 2.6 0.00 0.00 0.00 71 1007.5
20260506013903 66 73 0.9 1.7 0.00 0.00 0.00 69 1007.3
20260506013404 67 97 0.9 0.9 0.00 0.00 0.00 69 1007.2
20260506011404 66 97 0.9 1.7 0.00 0.00 0.00 69 1006.9
20260506010904 66 97 0.9 1.7 0.00 0.00 0.00 69 1006.9
20260506005903 66 97 0.0 1.7 0.00 0.00 0.00 70 1006.9
20260506005403 66 97 1.7 2.6 0.00 0.00 0.00 70 1006.7
20260506004903 66 97 0.9 2.6 0.00 0.00 0.00 70 1006.8
20260506004403 66 97 1.7 5.2 0.00 0.00 0.00 70 1006.7
20260506003905 66 93 1.7 2.6 0.00 0.00 0.00 70 1006.7
20260506003404 66 93 1.7 2.6 0.00 0.00 0.00 70 1006.6
20260506002904 66 93 0.9 1.7 0.00 0.00 0.00 70 1006.6
20260506002403 67 93 0.9 2.6 0.00 0.00 0.00 70 1006.6
20260506001904 67 92 1.7 2.6 0.00 0.00 0.00 70 1006.7
20260506000903 67 93 0.0 0.9 0.00 0.00 0.00 69 1006.7
20260506000405 67 93 0.0 1.7 0.00 0.00 0.00 69 1006.5
20260505235904 67 93 0.9 1.7 0.00 0.00 0.00 69 1006.4
20260505235404 67 93 0.9 2.6 0.00 0.00 0.00 69 1006.4
20260505233904 67 90 0.9 2.6 0.00 0.00 0.00 69 1006.2
20260505233404 67 96 0.9 2.6 0.00 0.00 0.00 69 1006.3
20260505232904 67 99 2.6 2.6 0.00 0.00 0.00 69 1006.3
20260505232404 67 101 1.7 2.6 0.00 0.00 0.00 68 1006.3
20260505231904 68 107 0.9 2.6 0.00 0.00 0.00 67 1006.4
20260505231404 68 255 0.9 2.6 0.00 0.00 0.00 67 1006.3
20260505230904 68 266 1.7 1.7 0.00 0.00 0.00 67 1006.1
20260505230403 68 266 0.9 2.6 0.00 0.00 0.00 66 1006.3
20260505225904 69 100 1.7 2.6 0.00 0.00 0.00 64 1006.1
20260505224905 70 343 1.7 4.3 0.00 0.00 0.00 60 1006.2
20260505222904 78 349 5.2 8.7 0.00 0.00 0.00 42 1006.0
20260505222404 79 295 4.3 10.4 0.00 0.00 0.00 34 1005.6
20260505221904 79 249 4.3 11.3 0.00 0.00 0.00 32 1004.9
20260505221405 79 259 3.5 7.8 0.00 0.00 0.00 32 1004.8
20260505215904 80 241 5.2 10.4 0.00 0.00 0.00 31 1004.5
20260505215403 80 260 4.3 13.0 0.00 0.00 0.00 31 1004.5
20260505214904 80 238 7.0 11.3 0.00 0.00 0.00 31 1004.4
20260505214404 80 232 5.2 10.4 0.00 0.00 0.00 31 1004.2
20260505213903 80 247 4.3 8.7 0.00 0.00 0.00 32 1004.2
20260505213405 80 240 5.2 10.4 0.00 0.00 0.00 31 1004.1
20260505212904 81 241 6.1 10.4 0.00 0.00 0.00 31 1004.0
20260505211404 82 258 6.1 14.8 0.00 0.00 0.00 31 1003.9
20260505210904 82 265 7.0 13.9 0.00 0.00 0.00 30 1003.8
20260505210404 82 244 6.1 10.4 0.00 0.00 0.00 31 1003.7
20260505205904 81 262 7.0 15.6 0.00 0.00 0.00 31 1003.7
20260505205404 81 237 7.0 14.8 0.00 0.00 0.00 31 1003.7